Time,TemperatureF,DewpointF,PressureIn,WindDirection,WindDirectionDegrees,WindSpeedMPH,WindSpeedGustMPH,Humidity,HourlyPrecipIn,Conditions,Clouds,dailyrainin,SoftwareType,DateUTC
2013-06-07 00:01:00,56.9,56.0,30.23,SSW,211,2.0,3.0,97,0.01,,,0.18,weatherlink.com 1.10,2013-06-07 04:01:00,
2013-06-07 00:16:00,56.7,56.0,30.23,SSW,212,1.0,3.0,98,0.00,,,0.18,weatherlink.com 1.10,2013-06-07 04:16:00,
2013-06-07 00:32:00,56.7,56.0,30.22,SW,221,1.0,3.0,98,0.00,,,0.18,weatherlink.com 1.10,2013-06-07 04:32:00,
2013-06-07 00:46:00,56.5,56.0,30.21,SW,234,1.0,2.0,98,0.00,,,0.18,weatherlink.com 1.10,2013-06-07 04:46:00,
2013-06-07 01:02:00,56.5,56.0,30.20,SW,218,1.0,3.0,98,0.00,,,0.18,weatherlink.com 1.10,2013-06-07 05:02:00,
2013-06-07 01:17:00,56.5,56.0,30.19,West,281,1.0,4.0,98,0.00,,,0.18,weatherlink.com 1.10,2013-06-07 05:17:00,
2013-06-07 01:32:00,56.5,56.0,30.19,WSW,255,0.0,2.0,98,0.00,,,0.18,weatherlink.com 1.10,2013-06-07 05:32:00,
2013-06-07 01:47:00,56.5,56.0,30.19,SSW,206,0.0,4.0,98,0.00,,,0.18,weatherlink.com 1.10,2013-06-07 05:47:00,
2013-06-07 02:02:00,56.5,56.0,30.19,SSW,205,0.0,3.0,98,0.00,,,0.18,weatherlink.com 1.10,2013-06-07 06:02:00,
2013-06-07 02:17:00,56.6,56.0,30.18,North,350,1.0,4.0,98,0.00,,,0.18,weatherlink.com 1.10,2013-06-07 06:17:00,
2013-06-07 02:32:00,56.7,56.0,30.18,West,271,0.0,5.0,98,0.00,,,0.18,weatherlink.com 1.10,2013-06-07 06:32:00,
2013-06-07 02:47:00,56.8,56.0,30.18,West,271,0.0,2.0,98,0.00,,,0.18,weatherlink.com 1.10,2013-06-07 06:47:00,
2013-06-07 03:02:00,56.8,56.0,30.17,West,268,0.0,3.0,98,0.00,,,0.18,weatherlink.com 1.10,2013-06-07 07:02:00,
2013-06-07 03:17:00,56.8,56.0,30.17,West,268,0.0,2.0,98,0.01,,,0.19,weatherlink.com 1.10,2013-06-07 07:17:00,
2013-06-07 03:32:00,56.8,56.0,30.16,West,270,0.0,2.0,98,0.01,,,0.19,weatherlink.com 1.10,2013-06-07 07:32:00,
2013-06-07 03:47:00,56.9,56.0,30.16,SE,128,0.0,2.0,98,0.03,,,0.21,weatherlink.com 1.10,2013-06-07 07:47:00,
2013-06-07 04:02:00,56.9,56.0,30.16,SW,221,0.0,2.0,98,0.03,,,0.22,weatherlink.com 1.10,2013-06-07 08:02:00,
2013-06-07 04:17:00,57.0,57.0,30.15,SSW,192,1.0,4.0,98,0.03,,,0.22,weatherlink.com 1.10,2013-06-07 08:17:00,
2013-06-07 04:32:00,57.1,57.0,30.15,East,97,0.0,2.0,98,0.04,,,0.23,weatherlink.com 1.10,2013-06-07 08:32:00,
2013-06-07 04:47:00,57.0,57.0,30.15,SW,215,0.0,3.0,98,0.02,,,0.23,weatherlink.com 1.10,2013-06-07 08:47:00,
2013-06-07 05:02:00,56.9,56.0,30.14,West,274,2.0,4.0,98,0.02,,,0.24,weatherlink.com 1.10,2013-06-07 09:02:00,
2013-06-07 05:17:00,56.9,56.0,30.14,NE,35,1.0,7.0,98,0.03,,,0.25,weatherlink.com 1.10,2013-06-07 09:17:00,
2013-06-07 05:32:00,56.9,56.0,30.14,WNW,295,0.0,5.0,98,0.03,,,0.26,weatherlink.com 1.10,2013-06-07 09:32:00,
2013-06-07 05:47:00,56.8,56.0,30.14,WNW,298,2.0,4.0,98,0.05,,,0.28,weatherlink.com 1.10,2013-06-07 09:47:00,
2013-06-07 06:02:00,56.8,56.0,30.14,NNW,331,1.0,4.0,98,0.05,,,0.29,weatherlink.com 1.10,2013-06-07 10:02:00,
2013-06-07 06:17:00,56.7,56.0,30.14,West,261,2.0,3.0,98,0.07,,,0.32,weatherlink.com 1.10,2013-06-07 10:17:00,
2013-06-07 06:32:00,56.5,56.0,30.14,West,259,1.0,4.0,98,0.13,,,0.39,weatherlink.com 1.10,2013-06-07 10:32:00,
2013-06-07 06:47:00,56.2,55.0,30.14,South,186,1.0,3.0,97,0.14,,,0.42,weatherlink.com 1.10,2013-06-07 10:47:00,
2013-06-07 07:02:00,55.8,55.0,30.14,WNW,296,5.0,7.0,97,0.14,,,0.43,weatherlink.com 1.10,2013-06-07 11:02:00,
2013-06-07 07:17:00,55.3,54.0,30.13,SE,134,3.0,6.0,96,0.11,,,0.44,weatherlink.com 1.10,2013-06-07 11:17:00,
2013-06-07 07:32:00,55.1,54.0,30.13,East,92,1.0,4.0,96,0.05,,,0.45,weatherlink.com 1.10,2013-06-07 11:32:00,
2013-06-07 07:47:00,55.1,54.0,30.13,South,176,2.0,8.0,97,0.04,,,0.46,weatherlink.com 1.10,2013-06-07 11:47:00,
2013-06-07 08:02:00,55.0,54.0,30.13,WNW,296,2.0,5.0,97,0.05,,,0.48,weatherlink.com 1.10,2013-06-07 12:02:00,
2013-06-07 08:17:00,55.1,54.0,30.14,WNW,294,1.0,2.0,97,0.06,,,0.50,weatherlink.com 1.10,2013-06-07 12:17:00,
2013-06-07 08:32:00,55.2,54.0,30.14,SSE,164,1.0,5.0,97,0.05,,,0.50,weatherlink.com 1.10,2013-06-07 12:32:00,
2013-06-07 08:47:00,55.3,55.0,30.13,SSE,165,0.0,2.0,98,0.03,,,0.50,weatherlink.com 1.10,2013-06-07 12:47:00,
2013-06-07 09:02:00,55.4,55.0,30.13,SSW,204,1.0,3.0,97,0.03,,,0.51,weatherlink.com 1.10,2013-06-07 13:02:00,
2013-06-07 09:17:00,55.6,55.0,30.13,ESE,105,0.0,3.0,98,0.02,,,0.52,weatherlink.com 1.10,2013-06-07 13:17:00,
2013-06-07 09:32:00,55.8,55.0,30.13,East,94,0.0,3.0,98,0.02,,,0.52,weatherlink.com 1.10,2013-06-07 13:32:00,
2013-06-07 09:47:00,56.0,56.0,30.12,SSE,160,0.0,2.0,98,0.03,,,0.53,weatherlink.com 1.10,2013-06-07 13:47:00,
2013-06-07 10:02:00,56.2,56.0,30.12,SSW,200,1.0,2.0,98,0.04,,,0.01,weatherlink.com 1.10,2013-06-07 14:02:00,
2013-06-07 10:17:00,56.5,56.0,30.12,SE,140,0.0,3.0,98,0.03,,,0.01,weatherlink.com 1.10,2013-06-07 14:17:00,
2013-06-07 10:32:00,56.8,56.0,30.11,WNW,286,1.0,4.0,98,0.04,,,0.02,weatherlink.com 1.10,2013-06-07 14:32:00,
2013-06-07 10:47:00,57.1,57.0,30.11,SSE,164,0.0,4.0,98,0.04,,,0.04,weatherlink.com 1.10,2013-06-07 14:47:00,
2013-06-07 11:02:00,57.4,57.0,30.11,South,191,1.0,5.0,98,0.05,,,0.06,weatherlink.com 1.10,2013-06-07 15:02:00,
2013-06-07 11:17:00,57.7,57.0,30.11,SSW,200,0.0,3.0,98,0.06,,,0.07,weatherlink.com 1.10,2013-06-07 15:17:00,
2013-06-07 11:32:00,58.0,58.0,30.11,SSE,147,0.0,3.0,98,0.06,,,0.08,weatherlink.com 1.10,2013-06-07 15:32:00,
2013-06-07 11:47:00,58.4,58.0,30.11,WSW,242,0.0,3.0,98,0.05,,,0.09,weatherlink.com 1.10,2013-06-07 15:47:00,
2013-06-07 12:02:00,58.7,58.0,30.10,WSW,242,0.0,2.0,98,0.04,,,0.10,weatherlink.com 1.10,2013-06-07 16:02:00,
2013-06-07 12:17:00,59.0,59.0,30.10,NW,321,1.0,2.0,98,0.05,,,0.12,weatherlink.com 1.10,2013-06-07 16:17:00,
2013-06-07 12:32:00,59.3,59.0,30.10,West,268,3.0,3.0,97,0.04,,,0.12,weatherlink.com 1.10,2013-06-07 16:32:00,
2013-06-07 12:47:00,59.6,59.0,30.09,East,94,0.0,4.0,97,0.04,,,0.13,weatherlink.com 1.10,2013-06-07 16:47:00,
2013-06-07 13:02:00,59.7,59.0,30.09,SSW,205,2.0,3.0,97,0.04,,,0.14,weatherlink.com 1.10,2013-06-07 17:02:00,
2013-06-07 13:18:00,59.9,59.0,30.08,SE,130,1.0,3.0,96,0.03,,,0.15,weatherlink.com 1.10,2013-06-07 17:18:00,
2013-06-07 13:33:00,60.1,59.0,30.08,West,271,0.0,6.0,97,0.04,,,0.16,weatherlink.com 1.10,2013-06-07 17:33:00,
2013-06-07 13:48:00,60.1,59.0,30.08,SSE,148,1.0,5.0,96,0.03,,,0.16,weatherlink.com 1.10,2013-06-07 17:48:00,
2013-06-07 14:33:00,60.0,59.0,30.07,NNW,336,0.0,2.0,97,0.04,,,0.20,weatherlink.com 1.10,2013-06-07 18:33:00,
2013-06-07 14:48:00,60.3,60.0,30.07,South,186,0.0,2.0,97,0.06,,,0.22,weatherlink.com 1.10,2013-06-07 18:48:00,
2013-06-07 15:03:00,60.2,59.0,30.07,ENE,77,1.0,5.0,96,0.04,,,0.22,weatherlink.com 1.10,2013-06-07 19:03:00,
2013-06-07 15:33:00,60.2,59.0,30.05,WSW,257,0.0,4.0,97,0.05,,,0.25,weatherlink.com 1.10,2013-06-07 19:33:00,
2013-06-07 16:03:00,59.8,59.0,30.04,ESE,109,0.0,2.0,97,0.06,,,0.29,weatherlink.com 1.10,2013-06-07 20:03:00,
2013-06-07 16:18:00,59.8,59.0,30.04,WNW,287,2.0,5.0,97,0.06,,,0.30,weatherlink.com 1.10,2013-06-07 20:18:00,
2013-06-07 16:33:00,59.6,59.0,30.03,SW,215,1.0,3.0,97,0.07,,,0.32,weatherlink.com 1.10,2013-06-07 20:33:00,
2013-06-07 16:48:00,59.5,59.0,30.02,NW,310,0.0,4.0,97,0.08,,,0.35,weatherlink.com 1.10,2013-06-07 20:48:00,
2013-06-07 17:03:00,59.5,59.0,30.02,East,83,0.0,3.0,97,0.12,,,0.41,weatherlink.com 1.10,2013-06-07 21:03:00,
2013-06-07 17:18:00,59.6,59.0,30.00,East,91,0.0,2.0,98,0.18,,,0.48,weatherlink.com 1.10,2013-06-07 21:18:00,
2013-06-07 17:33:00,59.5,59.0,29.99,East,96,2.0,2.0,98,0.18,,,0.50,weatherlink.com 1.10,2013-06-07 21:33:00,
2013-06-07 18:03:00,59.6,59.0,29.98,NNW,344,0.0,4.0,98,0.13,,,0.54,weatherlink.com 1.10,2013-06-07 22:03:00,
2013-06-07 18:18:00,59.5,59.0,29.99,SSW,209,3.0,3.0,98,0.07,,,0.55,weatherlink.com 1.10,2013-06-07 22:18:00,
2013-06-07 18:33:00,59.6,59.0,29.98,East,100,0.0,2.0,98,0.05,,,0.56,weatherlink.com 1.10,2013-06-07 22:33:00,
2013-06-07 19:03:00,59.6,59.0,29.98,SSE,158,0.0,2.0,98,0.03,,,0.57,weatherlink.com 1.10,2013-06-07 23:03:00,
2013-06-07 19:18:00,59.4,59.0,29.98,SSE,148,0.0,2.0,98,0.03,,,0.58,weatherlink.com 1.10,2013-06-07 23:18:00,
2013-06-07 19:33:00,59.3,59.0,29.98,South,186,0.0,3.0,98,0.03,,,0.59,weatherlink.com 1.10,2013-06-07 23:33:00,
2013-06-07 19:48:00,59.1,59.0,29.98,South,186,0.0,2.0,98,0.09,,,0.65,weatherlink.com 1.10,2013-06-07 23:48:00,
2013-06-07 20:03:00,58.8,58.0,29.97,South,188,0.0,4.0,98,0.12,,,0.69,weatherlink.com 1.10,2013-06-08 00:03:00,
2013-06-07 20:18:00,58.6,58.0,29.98,NE,42,0.0,2.0,98,0.13,,,0.71,weatherlink.com 1.10,2013-06-08 00:18:00,
2013-06-07 20:48:00,58.3,58.0,29.95,SE,136,1.0,2.0,98,0.13,,,0.78,weatherlink.com 1.10,2013-06-08 00:48:00,
2013-06-07 21:03:00,58.1,58.0,29.95,East,97,1.0,3.0,98,0.09,,,0.79,weatherlink.com 1.10,2013-06-08 01:03:00,
2013-06-07 21:33:00,57.9,57.0,29.94,SW,215,2.0,5.0,98,0.03,,,0.80,weatherlink.com 1.10,2013-06-08 01:33:00,
2013-06-07 21:48:00,57.7,57.0,29.95,SW,220,0.0,3.0,98,0.04,,,0.82,weatherlink.com 1.10,2013-06-08 01:48:00,
2013-06-07 22:03:00,57.5,57.0,29.95,South,173,0.0,4.0,98,0.05,,,0.84,weatherlink.com 1.10,2013-06-08 02:03:00,
2013-06-07 22:33:00,57.1,57.0,29.93,WSW,253,1.0,5.0,98,0.23,,,1.03,weatherlink.com 1.10,2013-06-08 02:33:00,
2013-06-07 22:48:00,56.7,56.0,29.93,East,88,6.0,7.0,98,0.25,,,1.07,weatherlink.com 1.10,2013-06-08 02:48:00,
2013-06-07 23:03:00,56.6,56.0,29.92,SW,225,2.0,4.0,98,0.36,,,1.20,weatherlink.com 1.10,2013-06-08 03:03:00,
2013-06-07 23:19:00,56.4,56.0,29.91,SW,219,2.0,4.0,99,0.35,,,1.28,weatherlink.com 1.10,2013-06-08 03:19:00,
2013-06-07 23:33:00,56.2,56.0,29.91,SSW,208,1.0,4.0,99,0.30,,,1.33,weatherlink.com 1.10,2013-06-08 03:33:00,
2013-06-07 23:48:00,56.0,56.0,29.90,SSW,212,0.0,5.0,98,0.32,,,1.40,weatherlink.com 1.10,2013-06-08 03:48:00,